Asheville, NC

3:47 AM EST on December 16, 2019 (GMT -0500)
Asheville Regional

Weather History for KAVL - September, 2019

Change the Weather History Date:

Sunday, September 8, 2019

  Actual Average Record
Temperature  
Mean Temperature 73 °F 69 °F  
Max Temperature 87 °F 79 °F 93 °F (1941)
Min Temperature 58 °F 59 °F 42 °F (1984)
Degree Days  
Heating Degree Days 0 0  
Month to date heating degree days 0 0  
Since 1 July heating degree days 0 2  
Cooling Degree Days 8 4  
Month to date cooling degree days 77 42  
Year to date cooling degree days 1083 799  
Growing Degree Days 22 (Base 50)    
Moisture  
Dew Point 59 °F    
Average Humidity 66    
Maximum Humidity 90    
Minimum Humidity 42    
Precipitation  
Precipitation 0.00 in 0.13 in 0.97 in (1893)
Month to date precipitation 0.00 1.07  
Year to date precipitation 41.71 32.68  
Snow  
Snow 0.00 in 0.00 in 0.00 in ()
Month to date snowfall 0.0 0.0  
Since 1 July snowfall 0.0 0.0  
Since 1 September snowfall 0.0 0.0  
Snow Depth 0.00 in    
Sea Level Pressure  
Sea Level Pressure 30.04 in    
Wind  
Wind Speed 2 mph (SW)    
Max Wind Speed 10 mph    
Max Gust Speed 14 mph    
Visibility 10 miles    
Events      
T = Trace of Precipitation, MM = Missing Value Source: NWS Daily Summary

Daily Weather History Graph

Daily Weather History Graph

Search for Another Location

Airport or City:

Astronomy

Sep. 08, 2019 Rise Set
Actual Time 7:07 AM EDT 7:47 PM EDT
Civil Twilight 6:41 AM EDT 8:13 PM EDT
Nautical Twilight 6:11 AM EDT 8:43 PM EDT
Astronomical Twilight 5:40 AM EDT 9:14 PM EDT
Moon 4:45 PM EDT (9/8) 1:56 AM EDT (9/8)
Length of Visible Light 13h 31m
Length of Day
12h 40m
Waxing Gibbous, 75% of the Moon is Illuminated
Sep 8
Waxing Gibbous
Sep 14
Full
Sep 21
Last Quarter
Sep 28
New
Oct 5
First Quarter

Hourly Weather History & Observations

Time (EDT) Temp. Heat Index Dew Point Humidity Pressure Visibility Wind Dir Wind Speed Gust Speed Precip Events Conditions
12:54 AM 66.9 °F - 57.9 °F 73% 29.99 in 10.0 mi Calm Calm - N/A   Clear
1:54 AM 64.9 °F - 57.9 °F 78% 30.00 in 10.0 mi NNW 3.5 mph - N/A   Clear
2:54 AM 63.0 °F - 57.9 °F 84% 30.00 in 10.0 mi Calm Calm - N/A   Clear
3:54 AM 63.0 °F - 57.0 °F 81% 29.99 in 10.0 mi NNW 3.5 mph - N/A   Clear
4:54 AM 60.1 °F - 57.0 °F 90% 30.00 in 10.0 mi Calm Calm - N/A   Clear
5:54 AM 61.0 °F - 57.0 °F 87% 30.01 in 10.0 mi Calm Calm - N/A   Clear
6:54 AM 59.0 °F - 55.0 °F 87% 30.04 in 9.0 mi Calm Calm - N/A   Clear
7:54 AM 59.0 °F - 55.9 °F 90% 30.06 in 10.0 mi Calm Calm - N/A   Clear
8:54 AM 64.0 °F - 57.0 °F 78% 30.08 in 10.0 mi Calm Calm - N/A   Clear
9:54 AM 69.1 °F - 59.0 °F 70% 30.08 in 10.0 mi Calm Calm - N/A   Clear
10:54 AM 73.9 °F - 59.0 °F 59% 30.06 in 10.0 mi SSE 4.6 mph - N/A   Clear
11:54 AM 79.0 °F - 57.9 °F 48% 30.04 in 10.0 mi South 9.2 mph - N/A   Clear
12:54 PM 81.0 °F 81.3 °F 59.0 °F 47% 30.03 in 10.0 mi ESE 5.8 mph - N/A   Clear
1:54 PM 82.0 °F 82.1 °F 59.0 °F 45% 30.04 in 10.0 mi Calm Calm - N/A   Clear
2:54 PM 84.0 °F 84.0 °F 60.1 °F 44% 30.03 in 10.0 mi Variable 3.5 mph - N/A   Clear
3:54 PM 86.0 °F 85.7 °F 60.1 °F 41% 30.01 in 10.0 mi Calm Calm - N/A   Clear
4:54 PM 86.0 °F 86.1 °F 61.0 °F 43% 30.01 in 10.0 mi Variable 3.5 mph - N/A   Clear
5:54 PM 84.9 °F 85.4 °F 62.1 °F 46% 30.02 in 10.0 mi SW 3.5 mph - N/A   Clear
6:54 PM 84.0 °F 84.4 °F 61.0 °F 46% 30.03 in 10.0 mi SW 3.5 mph - N/A   Clear
7:54 PM 81.0 °F 81.7 °F 61.0 °F 50% 30.06 in 10.0 mi NW 5.8 mph - N/A   Mostly Cloudy
9:54 PM 72.0 °F - 64.0 °F 76% 30.08 in 10.0 mi Calm Calm - N/A   Clear
10:54 PM 71.1 °F - 63.0 °F 75% 30.09 in 10.0 mi Calm Calm - N/A   Clear
11:54 PM 66.9 °F - 62.1 °F 84% 30.09 in 10.0 mi Calm Calm - N/A   Clear